Temperature
18 18 18 18 18 18 18 18 18 18 18 17 17 17 17 17 17 17 17 17 17 17 17 17 17 17 17 17 18 18 18 18 18 18 18 18 18 18 18 17 17 17 17
18 18 18 18 18 18 18 18 18 17 17 17 17 17 17 17 17 17 17 17 17 17 17 17 17 17 17 17 17 17 17 17 17 17 17 17 17 17 17 17 17 17 17
18 18 18 18 18 18 18 18 17 17 17 17 17 17 17 17 17 17 17 17 17 17 17 17 17 16 17 17 17 17 17 17 17 17 17 17 17 17 17 16 16 16 16
18 18 18 18 18 17 17 17 17 17 17 17 17 17 17 17 16 16 16 16 16 16 16 16 16 16 16 16 16 16 16 16 16 16 16 16 16 16 16 16 16 16 16
18 18 18 18 17 17 17 17 17 17 17 17 16 16 16 16 16 16 16 16 16 16 16 16 16 16 16 16 16 16 16 16 16 16 15 16 16 16 16 16 15 15 15
18 18 17 17 17 17 17 17 16 16 16 16 16 16 16 16 16 16 16 16 16 16 15 15 15 15 15 15 15 15 15 15 15 15 15 15 15 15 15 15 15 15 15
18 17 17 17 17 16 16 16 16 16 16 16 16 16 16 16 16 16 16 15 15 15 15 15 15 15 15 15 15 15 15 15 14 14 14 14 14 14 14 14 14 14 14
18 17 17 17 16 16 16 16 16 16 16 16 15 15 15 15 15 15 15 15 15 15 15 15 14 14 14 14 14 14 14 14 14 14 14 13 13 13 13 13 13 13 13
17 17 16 16 16 16 16 16 15 15 15 15 15 15 15 15 15 15 15 14 14 14 14 14 14 14 14 14 13 13 13 13 13 13 13 13 13 13 13 12 12 12 12
17 16 16 16 16 16 16 15 15 15 15 15 14 14 14 14 14 14 14 14 14 14 13 13 13 13 13 13 13 13 13 13 13 12 12 12 12 12 12 11 11 11 11
16 16 16 16 16 15 15 15 15 15 14 14 14 14 13 13 13 13 14 13 13 13 13 13 12 12 12 12 12 12 12 12 12 12 12 12 11 11 11 11 10 10 10
16 16 15 15 15 15 15 14 14 14 14 14 13 13 13 13 13 13 13 13 13 13 12 12 12 12 12 12 12 11 11 11 11 11 11 11 10 10 10 10 10 10 10
15 15 14 14 14 14 14 14 14 14 13 13 13 12 12 12 12 12 12 12 12 12 11 11 11 11 11 11 11 11 10 10 10 10 10 10 10 9 9 9 9 9 9
14 14 14 14 14 13 13 13 13 13 13 12 12 12 12 11 11 11 11 11 11 11 11 11 11 10 10 10 10 10 9 9 9 9 9 9 9 9 9 8 8 8 8
14 13 13 13 13 13 13 12 12 12 12 12 12 12 11 11 11 11 11 10 10 10 10 10 10 10 10 9 9 9 9 9 8 8 8 8 8 8 8 8 8 8 8
13 13 13 12 12 12 12 12 11 11 11 11 11 11 11 10 10 10 10 10 10 10 10 9 9 9 9 9 8 8 8 8 7 7 7 7 7 7 7 7 7 7 7
13 13 12 12 12 11 11 11 11 10 10 10 10 10 10 10 10 10 10 9 9 9 9 9 8 8 8 8 7 7 7 7 7 7 7 6 6 6 6 6 6 6 6
12 12 12 12 12 11 11 11 10 10 10 9 9 9 9 9 9 9 9 9 9 8 8 8 7 7 7 7 7 6 6 6 6 6 6 6 6 6 5 5 5 5 5
12 12 12 11 11 11 11 11 10 10 10 9 9 9 9 9 8 8 8 8 8 7 7 7 7 6 6 6 6 6 6 5 5 5 5 5 5 5 5 5 5 5 5
11 11 11 11 11 11 11 11 10 10 9 9 9 8 8 8 8 8 7 7 7 7 6 6 6 6 5 5 5 5 5 5 5 4 4 4 4 4 4 4 4 4 4
11 11 11 11 11 11 10 10 10 9 9 9 9 8 8 8 8 7 7 6 6 6 6 5 5 5 5 5 5 5 4 4 4 4 4 4 4 4 4 4 4 4 4
11 11 11 10 10 10 10 10 10 9 9 9 8 8 8 7 7 6 6 6 6 5 5 5 5 5 4 4 4 4 4 4 4 4 3 3 3 3 3 4 4 4 4
11 11 10 10 10 10 10 10 9 9 9 8 8 7 7 7 6 6 6 5 5 5 5 4 4 4 4 4 4 4 4 3 3 3 3 3 3 3 3 3 3 3 3
10 10 10 10 10 10 9 9 9 8 8 8 7 7 6 6 6 5 5 5 5 4 4 4 4 3 3 3 3 3 3 3 3 3 3 3 3 3 3 3 3 3 3
10 10 10 9 9 9 9 8 8 8 7 7 7 6 6 6 5 5 5 5 4 4 4 3 3 3 3 3 3 3 3 3 3 3 3 3 3 2 3 3 3 3 3
10 9 9 9 9 8 8 8 7 7 7 7 6 6 6 5 5 5 4 4 4 4 3 3 3 3 3 3 3 3 3 3 3 3 3 2 2 2 2 3 3 3 3
Wind_Speed
5 4 3 4 4 5 4 5 4 4 4 5 6 6 6 6 6 6 5 5 6 5 5 5 5 3 3 3 2 2 2 2 2 3 2 1 2 1 3 5 8 10 13
5 4 3 3 3 4 4 4 4 4 4 4 4 4 5 6 6 6 6 6 6 5 5 4 4 4 4 3 3 3 2 2 2 3 2 2 2 2 3 4 5 7 7
5 4 3 3 3 3 3 3 3 3 4 4 4 4 4 4 5 5 5 5 5 4 4 4 4 4 4 4 3 3 2 2 2 2 3 2 2 2 2 3 4 3 6
4 4 3 3 3 3 2 2 3 3 3 3 4 4 3 3 4 4 4 4 4 3 3 3 3 3 4 4 3 2 2 3 3 2 3 3 2 1 0 1 3 2 3
5 4 4 3 3 3 3 2 2 2 3 3 3 3 3 3 3 4 4 4 3 3 2 2 2 2 1 1 1 1 2 1 2 3 3 2 2 1 1 2 3 3 3
5 4 4 4 4 3 3 3 3 3 3 3 3 4 3 1 2 4 4 3 3 2 1 1 1 1 2 2 2 2 1 1 1 2 2 2 2 2 2 3 3 3 3
5 4 4 4 4 4 4 4 4 4 4 4 4 4 5 5 6 6 6 4 4 3 2 2 1 2 3 1 1 2 1 1 1 1 2 3 3 3 3 3 3 4 4
5 5 5 5 5 5 5 5 5 5 5 5 4 5 6 6 6 6 5 4 4 5 5 4 3 4 4 4 2 1 1 1 0 1 0 1 1 2 2 3 4 5 5
5 5 5 5 6 5 6 6 5 6 6 6 6 6 7 7 6 6 4 4 5 6 6 6 6 6 7 7 3 3 2 2 3 2 1 1 1 3 3 2 3 4 5
5 5 5 5 6 6 6 7 6 6 7 7 8 8 8 8 8 8 6 4 5 5 5 7 10 8 9 8 4 4 3 3 3 2 1 2 2 2 2 2 3 4 4
6 7 7 7 7 7 7 7 7 7 8 8 8 8 8 9 9 10 9 5 5 6 6 6 6 10 10 10 7 5 4 3 3 3 2 2 2 3 3 4 3 3 3
8 9 8 8 7 8 8 7 7 7 8 7 7 8 8 8 10 10 12 11 8 7 7 6 5 8 8 8 7 6 7 6 3 4 4 4 4 4 4 4 4 4 3
9 10 10 10 9 8 8 7 6 5 6 6 7 7 7 7 8 12 12 12 12 8 6 6 5 5 5 4 6 7 7 6 5 5 5 5 4 3 3 3 3 4 5
11 10 10 11 12 12 10 9 8 7 6 6 7 7 7 7 6 5 5 7 8 7 5 4 3 3 3 4 5 5 5 6 5 5 5 4 5 5 4 4 4 4 4
11 11 11 12 12 12 13 11 10 9 7 7 7 7 7 7 6 7 6 5 4 5 3 2 3 3 4 4 5 5 5 6 6 5 4 5 5 5 5 5 4 5 5
10 10 9 9 9 10 11 13 18 15 17 18 15 12 9 8 7 10 11 10 9 8 5 5 5 6 6 6 6 6 5 5 5 5 5 5 5 5 5 5 5 5 5
9 9 8 9 9 9 9 10 10 11 16 17 15 14 11 9 9 9 9 8 7 6 6 6 6 6 6 6 6 6 5 5 5 5 5 5 5 5 5 6 6 6 6
9 10 8 7 8 8 8 9 8 9 9 8 8 9 8 7 7 7 6 5 5 6 6 7 6 6 6 6 6 6 5 5 6 6 6 6 6 6 6 6 6 7 7
9 8 7 7 7 7 7 7 8 9 8 8 6 4 2 3 3 5 6 5 7 7 7 7 7 6 6 5 5 5 5 5 6 6 6 7 7 7 7 7 7 9 7
8 9 7 6 6 6 6 6 7 7 7 6 6 4 2 2 3 5 6 6 7 7 6 6 6 6 5 5 5 5 6 6 7 7 7 7 7 7 7 8 7 7 7
7 8 8 7 6 6 6 6 6 6 6 7 6 5 5 4 7 8 7 7 7 6 6 5 5 6 6 5 6 7 7 7 7 7 7 7 7 6 6 6 7 7 7
5 6 6 6 6 6 5 4 5 6 7 7 6 6 7 6 7 7 7 6 6 6 6 6 6 7 7 7 7 7 7 8 8 8 8 7 7 6 6 6 6 7 7
6 7 8 7 6 5 5 6 6 7 7 7 7 6 7 6 6 6 6 6 5 6 7 7 6 8 9 10 10 9 8 8 8 9 8 8 8 7 6 6 7 8 7
7 7 7 6 6 6 7 7 7 7 7 7 6 6 6 6 6 6 6 5 5 6 7 8 9 10 11 11 11 11 10 10 11 10 11 9 8 7 6 6 7 8 7
6 6 6 6 6 6 7 7 7 7 6 6 6 5 6 5 5 5 5 4 5 5 6 8 8 10 12 14 13 12 13 14 13 12 11 10 8 7 7 8 7 7 7
6 6 7 7 7 7 6 6 6 6 5 5 5 5 5 5 5 5 5 4 4 4 6 8 10 11 12 12 12 13 16 17 17 17 12 9 7 6 8 7 9 8 8
Wind_Direction
176 183 188 181 192 201 202 207 207 215 210 204 200 194 192 188 194 194 198 198 196 198 208 212 214 231 267 278 262 250 242 226 257 276 269 252 214 197 175 225 224 205 213
169 167 179 178 178 190 201 201 194 197 192 193 194 192 192 191 192 188 194 193 190 193 202 204 208 218 229 259 277 265 247 232 235 265 299 292 243 210 204 233 249 238 224
162 163 166 178 181 184 191 186 171 168 175 186 188 189 188 187 187 187 190 188 185 191 196 199 208 223 233 240 248 276 289 279 238 241 260 267 261 249 233 248 259 270 261
137 139 143 161 169 161 161 160 157 163 172 183 182 177 171 171 173 179 181 181 177 182 191 198 204 221 230 238 239 256 273 288 293 284 275 275 272 278 269 277 283 288 283
128 132 138 147 148 137 127 126 132 143 151 138 134 134 140 158 177 174 170 169 159 158 166 178 178 170 162 211 242 249 268 279 294 290 286 300 308 336 337 309 293 299 299
123 126 127 127 120 116 116 115 109 107 103 105 108 106 105 129 112 125 135 129 123 130 142 152 134 97 119 140 134 102 92 207 289 304 305 307 319 340 341 327 326 323 307
117 116 119 116 111 112 120 112 110 109 102 93 93 99 91 68 66 85 90 95 99 103 101 90 1 23 43 0 183 163 115 107 195 279 318 319 332 349 339 327 318 309 288
115 115 116 119 115 109 101 92 91 91 91 89 86 89 86 70 69 74 79 98 89 81 73 72 71 52 21 8 5 46 62 32 247 211 33 324 335 341 330 313 302 300 291
118 118 117 116 112 110 106 99 93 92 90 83 77 77 79 64 54 67 81 103 94 81 73 65 66 61 31 26 36 40 38 38 67 86 133 243 295 318 334 334 331 322 314
101 98 99 99 101 103 102 101 96 92 89 83 75 70 73 70 57 62 74 90 95 89 80 70 61 55 38 28 33 36 29 3 355 344 295 280 283 320 334 339 351 342 332
85 90 88 93 97 97 97 98 100 98 94 88 84 76 70 62 59 57 60 65 73 79 76 71 59 53 48 40 40 40 21 338 323 329 358 24 28 33 37 24 23 10 347
85 87 84 83 90 96 97 96 100 104 103 100 96 86 72 63 58 58 61 63 65 76 77 77 74 63 56 47 46 28 14 3 4 29 41 37 33 31 17 6 2 352 318
88 86 84 80 74 76 81 85 89 94 94 93 92 89 80 70 63 63 65 64 66 76 79 88 85 66 52 48 44 24 22 28 26 30 26 22 19 13 357 349 346 331 307
91 90 87 82 73 62 58 56 57 51 71 82 82 84 79 66 53 50 66 73 75 76 75 82 75 42 27 30 36 39 44 41 32 29 21 13 7 4 1 353 345 341 331
95 93 89 84 83 74 65 53 59 51 52 74 79 78 78 71 41 40 52 50 46 49 45 67 69 65 58 53 49 47 43 38 32 18 13 12 8 2 354 352 349 343 338
101 102 100 98 96 96 92 77 57 61 61 65 70 82 74 73 64 53 50 45 39 33 48 59 56 48 44 43 41 39 39 34 21 13 15 13 5 355 350 347 344 345 343
101 102 104 109 111 110 108 105 96 71 61 62 67 76 81 75 60 47 37 28 21 37 59 61 57 50 41 37 35 30 26 28 21 12 7 3 357 354 354 353 352 352 346
92 92 95 101 107 111 115 118 117 113 102 84 69 72 79 72 52 33 25 27 56 64 59 58 55 51 45 36 31 24 21 23 19 7 6 5 2 358 357 354 353 352 340
84 89 89 96 100 102 106 109 109 108 110 113 111 96 89 85 41 18 25 46 60 62 57 52 48 46 40 34 27 21 22 24 18 10 14 7 4 359 357 351 346 344 339
92 93 92 98 100 99 98 100 102 105 105 105 102 96 117 147 93 74 60 50 57 56 50 51 48 45 40 30 27 22 20 24 19 13 10 4 2 360 353 346 345 343 341
101 100 95 91 90 92 93 93 95 97 99 96 87 63 39 69 71 69 64 57 54 53 45 41 47 44 38 28 24 22 23 22 17 8 1 355 353 348 340 339 340 342 339
107 113 108 99 95 92 93 95 95 94 93 96 103 88 58 64 66 64 64 62 57 52 48 38 41 42 35 26 24 24 22 18 8 359 352 344 338 334 334 339 341 337 335
92 95 94 93 97 102 98 88 84 83 85 84 80 74 71 66 66 63 62 58 54 54 51 48 47 41 35 33 38 36 24 11 355 345 339 335 332 331 335 337 335 336 337
93 97 101 103 99 94 87 85 84 84 84 81 80 79 78 77 74 68 62 57 56 55 52 52 54 49 42 37 39 35 24 4 348 339 333 322 322 330 334 332 331 333 331
86 90 94 94 92 89 86 85 83 81 82 82 82 81 82 81 78 75 71 67 67 62 57 56 55 52 51 48 38 25 12 5 358 346 329 317 320 329 331 329 330 331 337
86 87 88 89 86 85 85 85 85 85 84 83 81 78 75 74 74 66 55 49 63 66 64 65 63 59 54 47 35 23 14 6 359 351 336 318 319 334 338 333 336 339 340
Height
1495 1496 1497 1498 1500 1501 1503 1504 1506 1507 1509 1511 1513 1516 1518 1520 1523 1526 1529 1531 1533 1535 1537 1539 1541 1543 1545 1546 1548 1549 1549 1550 1550 1550 1551 1551 1551 1552 1552 1552 1552 1551 1552
1494 1495 1497 1498 1499 1500 1501 1502 1503 1505 1506 1508 1510 1512 1515 1517 1520 1522 1525 1527 1530 1532 1534 1536 1538 1539 1541 1543 1544 1545 1546 1546 1547 1547 1547 1547 1548 1548 1548 1548 1548 1548 1548
1494 1495 1496 1497 1498 1498 1499 1500 1501 1503 1504 1506 1508 1509 1511 1514 1516 1519 1522 1524 1526 1528 1531 1533 1534 1536 1537 1539 1540 1541 1542 1542 1543 1543 1543 1544 1544 1544 1544 1544 1544 1544 1544
1494 1495 1495 1496 1497 1497 1498 1499 1500 1501 1502 1504 1506 1507 1509 1511 1514 1516 1518 1521 1523 1525 1528 1529 1530 1532 1534 1535 1536 1537 1538 1539 1539 1539 1540 1540 1541 1540 1540 1540 1540 1541 1540
1494 1494 1495 1496 1496 1497 1498 1499 1500 1500 1501 1503 1504 1506 1508 1509 1511 1513 1516 1518 1521 1522 1524 1526 1528 1529 1531 1532 1533 1534 1534 1535 1535 1536 1536 1536 1537 1537 1537 1537 1536 1536 1536
1493 1494 1495 1496 1496 1497 1498 1498 1499 1500 1501 1502 1503 1504 1506 1508 1510 1512 1514 1516 1518 1520 1522 1523 1525 1527 1528 1529 1530 1531 1531 1532 1532 1532 1533 1533 1533 1533 1533 1533 1532 1532 1531
1493 1494 1495 1496 1497 1497 1498 1499 1499 1500 1500 1501 1503 1504 1505 1507 1509 1511 1513 1515 1517 1518 1520 1521 1522 1524 1525 1526 1527 1527 1528 1528 1529 1529 1529 1529 1530 1529 1529 1528 1528 1528 1527
1493 1494 1494 1496 1497 1498 1498 1499 1500 1500 1501 1502 1503 1504 1505 1507 1508 1510 1512 1514 1516 1517 1519 1520 1521 1522 1523 1524 1524 1524 1525 1525 1526 1526 1526 1526 1527 1526 1525 1525 1525 1524 1524
1493 1494 1495 1496 1497 1498 1499 1500 1501 1502 1502 1503 1504 1505 1506 1507 1509 1510 1512 1514 1515 1516 1518 1519 1520 1520 1521 1521 1522 1522 1523 1523 1523 1524 1524 1523 1523 1523 1523 1522 1521 1521 1520
1493 1494 1496 1497 1498 1499 1500 1501 1502 1503 1504 1505 1505 1506 1507 1508 1509 1511 1513 1514 1515 1516 1518 1519 1519 1520 1520 1521 1521 1521 1521 1521 1522 1522 1522 1521 1521 1521 1520 1520 1519 1518 1517
1493 1495 1496 1497 1498 1500 1501 1502 1503 1504 1505 1506 1507 1508 1509 1510 1511 1512 1513 1514 1515 1517 1518 1519 1519 1520 1520 1520 1520 1520 1520 1521 1521 1520 1520 1520 1519 1519 1518 1517 1516 1516 1515
1494 1495 1497 1498 1500 1501 1502 1503 1505 1505 1506 1508 1509 1510 1511 1512 1513 1514 1515 1515 1516 1517 1518 1519 1520 1520 1520 1520 1520 1520 1520 1520 1519 1519 1518 1518 1518 1517 1516 1515 1514 1513 1513
1494 1496 1498 1500 1501 1503 1504 1505 1507 1508 1509 1510 1511 1512 1513 1514 1515 1515 1516 1517 1518 1518 1519 1520 1521 1521 1521 1521 1521 1521 1520 1519 1518 1518 1518 1518 1517 1516 1515 1514 1513 1511 1510
1496 1498 1500 1501 1503 1504 1505 1507 1508 1510 1511 1512 1513 1514 1515 1516 1517 1518 1518 1519 1520 1520 1521 1521 1522 1522 1522 1522 1521 1521 1521 1520 1519 1519 1518 1517 1516 1515 1514 1512 1511 1510 1508
1498 1500 1502 1503 1504 1506 1507 1509 1510 1512 1514 1515 1515 1516 1517 1518 1519 1520 1520 1521 1521 1522 1522 1522 1523 1523 1523 1523 1523 1522 1521 1521 1520 1519 1519 1517 1516 1514 1513 1511 1510 1508 1507
1501 1503 1505 1506 1508 1509 1510 1512 1514 1515 1516 1517 1518 1519 1520 1521 1521 1522 1522 1523 1523 1524 1524 1524 1524 1525 1525 1524 1524 1523 1522 1521 1521 1520 1519 1517 1516 1514 1513 1511 1509 1507 1505
1503 1505 1507 1509 1510 1512 1513 1515 1516 1519 1520 1521 1521 1522 1523 1523 1524 1524 1525 1525 1526 1526 1526 1526 1526 1526 1526 1525 1524 1524 1523 1522 1521 1520 1519 1518 1516 1514 1513 1511 1508 1506 1504
1507 1509 1510 1512 1514 1515 1517 1518 1520 1521 1522 1524 1525 1525 1526 1527 1527 1527 1528 1528 1528 1528 1528 1528 1528 1528 1527 1526 1526 1525 1524 1523 1521 1520 1519 1517 1516 1514 1512 1510 1508 1506 1503
1510 1511 1513 1515 1517 1518 1520 1522 1523 1525 1526 1527 1528 1529 1530 1530 1530 1530 1530 1530 1531 1531 1530 1530 1530 1529 1528 1528 1527 1526 1525 1523 1522 1520 1518 1517 1515 1513 1511 1509 1507 1505 1503
1513 1515 1517 1518 1520 1522 1523 1525 1526 1528 1529 1530 1531 1532 1532 1533 1533 1533 1533 1533 1533 1532 1532 1532 1531 1530 1529 1529 1527 1526 1525 1523 1521 1520 1518 1516 1514 1512 1510 1508 1506 1504 1501
1517 1519 1520 1522 1524 1525 1526 1528 1529 1530 1531 1532 1533 1534 1535 1535 1535 1535 1535 1535 1535 1534 1534 1533 1533 1531 1530 1529 1528 1526 1525 1523 1521 1519 1517 1515 1513 1511 1510 1508 1505 1503 1500
1520 1522 1524 1525 1527 1528 1529 1531 1532 1533 1534 1535 1535 1536 1537 1537 1537 1537 1537 1537 1536 1536 1535 1534 1533 1532 1531 1529 1528 1526 1524 1522 1520 1517 1515 1514 1512 1511 1509 1507 1504 1502 1499
1524 1525 1526 1528 1529 1531 1532 1533 1534 1535 1536 1537 1538 1538 1538 1538 1538 1538 1538 1538 1537 1537 1536 1535 1533 1532 1531 1529 1527 1525 1523 1521 1519 1516 1514 1512 1511 1509 1508 1506 1503 1501 1498
1526 1528 1529 1530 1532 1533 1534 1535 1536 1537 1538 1539 1539 1539 1540 1540 1540 1539 1539 1539 1538 1537 1537 1535 1534 1532 1531 1529 1527 1525 1522 1520 1518 1515 1513 1511 1510 1508 1507 1505 1502 1500 1498
1529 1530 1531 1532 1534 1535 1536 1537 1538 1539 1540 1540 1541 1541 1541 1541 1541 1540 1540 1539 1539 1538 1537 1536 1535 1533 1531 1529 1527 1524 1522 1519 1517 1514 1512 1510 1509 1507 1506 1504 1502 1500 1497
1531 1532 1533 1534 1535 1536 1537 1538 1539 1540 1541 1541 1542 1542 1542 1542 1541 1541 1541 1540 1540 1539 1538 1536 1535 1533 1531 1529 1526 1524 1521 1519 1516 1514 1512 1510 1509 1507 1505 1503 1501 1499 1497